Waarnemingen

Advertentie
Mijn weer
Groningen Eelde, Nederland (6280): temperatuur & dauwpunt: 18.08.2017 01:00:00 - 24.08.2017 01:00:00 (CEST)Groningen Eelde, Nederland (6280): temperatuur 5cm: 18.08.2017 01:00:00 - 24.08.2017 01:00:00 (CEST)Groningen Eelde, Nederland (6280): windsnelheid & windstoten: 18.08.2017 01:00:00 - 24.08.2017 01:00:00 (CEST)Groningen Eelde, Nederland (6280): windrichting: 18.08.2017 01:00:00 - 24.08.2017 01:00:00 (CEST)Groningen Eelde, Nederland (6280): luchtdruk: 18.08.2017 01:00:00 - 24.08.2017 01:00:00 (CEST)Groningen Eelde, Nederland (6280): zicht: 18.08.2017 01:00:00 - 24.08.2017 01:00:00 (CEST)Groningen Eelde, Nederland (6280): neerslag: 18.08.2017 01:00:00 - 24.08.2017 01:00:00 (CEST)
Datum & Tijd tt [°C] td [°C] tt 5cm [°C] ff [km/u] ff [kn] fx [km/u] fx [kn] dd ppp [hPa] vv [km] rr [mm]
24.08.2017 01:00:00 17,0 13,0 16,5 11 6 18 10 OZO 1012,0 10 0,0
24.08.2017 00:00:00 17,1 13,0 16,4 9 5 18 10 OZO 1012,8 10 0,0
23.08.2017 23:00:00 17,5 13,2 16,8 11 6 18 10 O 1013,1 10 0,0
23.08.2017 22:00:00 18,5 13,1 17,6 11 6 22 12 O 1013,5 10 0,0
23.08.2017 21:00:00 19,3 13,4 18,5 11 6 18 10 O 1013,9 10 0,0
23.08.2017 20:00:00 20,2 13,8 19,6 11 6 18 10 O 1013,8 10 0,0
23.08.2017 19:00:00 21,2 14,5 21,0 8 4 14 8 OZO 1014,4 10 0,0
23.08.2017 18:00:00 22,0 14,0 22,1 11 6 22 12 OZO 1014,6 10 0,0
23.08.2017 17:00:00 23,1 12,7 24,8 11 6 22 12 OZO 1015,2 10 0,0
23.08.2017 16:00:00 22,8 13,6 24,5 15 8 22 12 OZO 1015,5 10 0,0
23.08.2017 15:00:00 22,4 11,4 24,8 15 8 25 14 OZO 1016,1 10 0,0
23.08.2017 14:00:00 21,7 11,3 24,7 15 8 29 16 OZO 1016,7 10 0,0
23.08.2017 13:00:00 21,0 11,0 23,5 16 9 25 14 ZO 1017,2 10 0,0
23.08.2017 12:00:00 19,9 12,6 21,4 16 9 22 12 OZO 1017,7 10 0,0
23.08.2017 11:00:00 17,3 12,0 19,3 15 8 22 12 O 1018,0 10 0,0
23.08.2017 10:00:00 15,8 11,5 16,7 15 8 22 12 O 1018,2 10 0,0
23.08.2017 09:00:00 13,8 10,4 14,5 13 7 22 12 OZO 1018,5 10 0,0
23.08.2017 08:00:00 12,2 10,0 11,9 11 6 22 12 O 1018,4 10 0,0
23.08.2017 07:00:00 10,6 9,5 9,4 9 5 14 8 O 1018,6 10 0,0
23.08.2017 06:00:00 10,4 9,4 8,9 9 5 11 6 O 1019,0 10 0,0
23.08.2017 05:00:00 10,9 9,8 9,7 9 5 14 8 O 1019,3 10 0,0
23.08.2017 04:00:00 11,0 9,9 9,9 9 5 14 8 O 1019,7 10 0,0
23.08.2017 03:00:00 11,5 10,3 9,4 9 5 14 8 O 1019,9 10 0,0
23.08.2017 02:00:00 10,5 9,8 8,3 8 4 11 6 O 1020,2 10 0,0
23.08.2017 01:00:00 11,2 10,4 9,0 5 3 11 6 O 1020,4 10 0,0
23.08.2017 00:00:00 12,3 10,7 10,2 8 4 14 8 O 1020,5 10 0,0
22.08.2017 23:00:00 12,1 10,8 10,6 9 5 14 8 ONO 1020,6 10 0,0
22.08.2017 22:00:00 12,8 10,9 10,9 8 4 14 8 NO 1020,8 10 0,0
22.08.2017 21:00:00 14,6 11,3 13,4 11 6 18 10 NO 1020,8 10 0,0
22.08.2017 20:00:00 16,5 11,4 15,9 11 6 22 12 NO 1020,7 10 0,0
22.08.2017 19:00:00 17,6 11,2 17,6 13 7 22 12 NO 1020,9 10 0,0
22.08.2017 18:00:00 19,2 11,4 20,3 13 7 18 10 NO 1021,2 10 0,0
22.08.2017 17:00:00 19,8 10,7 21,7 11 6 25 14 NO 1021,4 10 0,0
22.08.2017 16:00:00 20,5 11,0 21,3 11 6 18 10 NNO 1021,7 10 0,0
22.08.2017 15:00:00 19,6 9,9 21,2 9 5 14 8 ONO 1022,0 10 0,0
22.08.2017 14:00:00 19,9 10,3 22,8 4 2 14 8 NW 1022,4 10 0,0
22.08.2017 13:00:00 19,2 11,9 21,1 9 5 14 8 ONO 1022,5 10 0,0
22.08.2017 12:00:00 18,8 12,1 21,2 5 3 14 8 - 1022,7 10 0,0
22.08.2017 11:00:00 17,6 11,8 19,2 8 4 11 6 O 1022,9 10 0,0
22.08.2017 10:00:00 16,6 13,3 17,0 4 2 11 6 - 1022,9 10 0,0
22.08.2017 09:00:00 13,8 12,2 14,1 4 2 7 4 - 1022,9 10 0,0
22.08.2017 08:00:00 11,2 11,1 10,1 2 1 4 2 O 1022,7 10 0,0
22.08.2017 07:00:00 8,7 8,7 6,8 2 1 4 2 ONO 1022,5 10 0,0
22.08.2017 06:00:00 8,1 8,1 5,8 2 1 4 2 ONO 1022,6 10 0,0
22.08.2017 05:00:00 9,7 9,6 6,7 2 1 4 2 ONO 1022,6 5 0,0
22.08.2017 04:00:00 10,1 10,0 8,9 0 0 4 2 N 1022,8 10 0,0
22.08.2017 03:00:00 10,5 10,4 9,2 0 0 0 0 N 1023,0 10 0,0
22.08.2017 02:00:00 9,9 9,8 6,9 2 1 4 2 ONO 1022,8 2,4 0,0
22.08.2017 01:00:00 10,1 10,1 6,4 2 1 4 2 ONO 1023,0 10 0,0
22.08.2017 00:00:00 10,5 10,4 6,7 2 1 4 2 ONO 1023,1 10 0,0
21.08.2017 23:00:00 11,1 10,8 7,2 0 0 0 0 N 1023,2 10 0,0
21.08.2017 22:00:00 11,3 11,0 7,5 0 0 7 4 N 1023,3 10 0,0
21.08.2017 21:00:00 13,8 11,8 10,7 5 3 11 6 NO 1022,9 10 0,0
21.08.2017 20:00:00 15,7 10,9 14,7 9 5 18 10 NNW 1022,5 10 0,0
21.08.2017 19:00:00 17,5 11,1 17,8 13 7 22 12 NNW 1022,5 10 0,0
21.08.2017 18:00:00 19,0 12,1 20,1 13 7 22 12 NNW 1022,7 10 0,0
21.08.2017 17:00:00 19,6 11,2 21,0 13 7 22 12 NNW 1022,6 10 0,0
21.08.2017 16:00:00 19,5 11,1 20,2 13 7 22 12 NW 1022,7 10 0,0
21.08.2017 15:00:00 19,9 10,2 21,3 13 7 22 12 W 1022,9 10 0,0
21.08.2017 14:00:00 19,5 11,0 22,0 9 5 18 10 - 1023,0 10 0,0
21.08.2017 13:00:00 18,3 10,7 17,8 13 7 18 10 NW 1023,4 10 0,0
21.08.2017 12:00:00 18,3 11,3 19,6 13 7 29 16 W 1023,4 10 0,0
21.08.2017 11:00:00 17,4 12,4 19,1 13 7 22 12 W 1023,5 10 0,0
21.08.2017 10:00:00 16,5 13,3 18,3 9 5 14 8 W 1023,4 10 0,0
21.08.2017 09:00:00 14,5 12,5 14,6 9 5 14 8 W 1023,1 10 0,0
21.08.2017 08:00:00 12,2 11,5 11,6 8 4 11 6 WZW 1022,7 10 0,0
21.08.2017 07:00:00 9,2 9,0 8,1 8 4 11 6 ZW 1022,3 10 0,0
21.08.2017 06:00:00 9,3 9,1 7,7 9 5 11 6 WZW 1022,2 10 0,0
21.08.2017 05:00:00 10,0 9,6 8,0 9 5 11 6 WZW 1022,2 10 0,0
21.08.2017 04:00:00 9,8 9,5 8,3 9 5 14 8 WZW 1022,4 10 0,0
21.08.2017 03:00:00 10,8 10,2 8,4 9 5 18 10 WZW 1022,3 10 0,0
21.08.2017 02:00:00 11,1 10,3 9,8 11 6 18 10 WZW 1022,3 10 0,0
21.08.2017 01:00:00 10,4 9,8 9,3 11 6 14 8 WZW 1022,4 10 0,0
21.08.2017 00:00:00 11,3 10,7 10,2 13 7 14 8 ZW 1022,3 10 0,0
20.08.2017 23:00:00 11,9 11,0 10,9 11 6 14 8 WZW 1022,5 10 0,0
20.08.2017 22:00:00 13,5 11,7 12,3 11 6 14 8 WZW 1022,5 10 0,0
20.08.2017 21:00:00 13,9 11,6 12,8 11 6 22 12 WZW 1022,3 10 0,0
20.08.2017 20:00:00 15,6 11,9 14,3 16 9 29 16 W 1021,6 10 0,0
20.08.2017 19:00:00 16,3 11,9 15,5 21 11 40 21 W 1021,4 10 0,0
20.08.2017 18:00:00 17,3 11,9 16,4 22 12 40 21 WNW 1021,4 10 0,3
20.08.2017 17:00:00 17,4 12,6 17,8 22 12 43 23 W 1021,2 10 0,0
20.08.2017 16:00:00 17,7 11,8 18,1 26 14 43 23 W 1020,6 10 0,0
20.08.2017 15:00:00 18,3 11,7 19,6 26 14 50 27 W 1020,4 10 0,0
20.08.2017 14:00:00 18,6 12,9 18,8 26 14 47 25 W 1020,1 10 0,0
20.08.2017 13:00:00 17,8 13,4 18,6 24 13 43 23 WZW 1019,8 10 0,0
20.08.2017 12:00:00 17,0 14,5 17,8 24 13 36 19 ZW 1019,5 10 0,0
20.08.2017 11:00:00 16,2 14,5 16,6 22 12 32 18 ZW 1019,3 10 0,5
20.08.2017 10:00:00 14,7 13,6 14,8 21 11 32 18 ZW 1018,9 10 1,1
20.08.2017 09:00:00 14,4 13,2 14,3 18 10 29 16 ZW 1018,4 10 0,1
20.08.2017 08:00:00 13,9 12,7 13,5 15 8 25 14 ZZW 1017,9 10 0,0
20.08.2017 07:00:00 12,2 11,5 11,5 15 8 29 16 ZZW 1017,6 10 0,0
20.08.2017 06:00:00 12,3 11,2 11,7 18 10 25 14 ZZW 1017,3 10 0,0
20.08.2017 05:00:00 12,6 12,0 12,2 18 10 32 18 ZW 1017,1 10 1,1
20.08.2017 04:00:00 12,3 11,5 11,6 16 9 22 12 ZZW 1016,9 10 0,0
20.08.2017 03:00:00 11,8 11,2 11,0 13 7 22 12 ZZW 1016,8 10 0,0
20.08.2017 02:00:00 11,9 11,1 11,1 11 6 22 12 ZZW 1016,8 10 0,0
20.08.2017 01:00:00 12,2 11,3 11,5 13 7 22 12 ZZW 1016,7 10 0,1
20.08.2017 00:00:00 13,3 11,3 12,5 15 8 22 12 WZW 1016,9 10 0,0
19.08.2017 23:00:00 12,4 11,2 11,6 13 7 22 12 ZZW 1016,6 10 0,0
19.08.2017 22:00:00 12,7 10,9 12,2 16 9 43 23 ZW 1016,6 10 0,3
19.08.2017 21:00:00 13,5 11,0 12,4 13 7 29 16 ZW 1015,9 10 0,0
19.08.2017 20:00:00 14,6 11,9 13,9 13 7 22 12 ZW 1015,5 10 0,0
19.08.2017 19:00:00 16,5 12,1 14,6 16 9 43 23 W 1015,6 10 0,1
19.08.2017 18:00:00 16,6 11,7 16,4 21 11 36 19 WZW 1015,5 10 0,0
19.08.2017 17:00:00 16,4 11,8 16,5 21 11 40 21 WZW 1015,2 10 0,0
19.08.2017 16:00:00 16,2 13,0 16,8 15 8 40 21 WZW 1014,7 10 4,0
19.08.2017 15:00:00 18,2 11,4 19,1 28 15 40 21 WZW 1013,9 10 0,0
19.08.2017 14:00:00 17,6 11,3 18,9 26 14 43 23 WZW 1013,4 10 0,0
19.08.2017 13:00:00 18,9 12,3 20,6 29 16 43 23 WZW 1012,8 10 0,0
19.08.2017 12:00:00 18,1 12,1 18,1 28 15 47 25 ZW 1012,5 10 0,0
19.08.2017 11:00:00 16,7 12,7 17,7 24 13 40 21 ZW 1012,3 10 0,0
19.08.2017 10:00:00 15,3 12,8 14,8 22 12 32 18 ZW 1011,8 10 0,0
19.08.2017 09:00:00 13,3 12,5 13,1 16 9 25 14 ZZW 1012,2 10 0,0
19.08.2017 08:00:00 11,9 11,5 11,6 13 7 25 14 ZZW 1011,3 10 4,2
19.08.2017 07:00:00 11,7 11,2 11,6 16 9 25 14 ZW 1011,4 8 2,1
19.08.2017 06:00:00 11,9 10,8 10,7 18 10 29 16 ZZW 1010,7 10 0,0
19.08.2017 05:00:00 11,6 10,5 10,3 16 9 25 14 ZZW 1010,4 10 0,0
19.08.2017 04:00:00 10,9 10,1 9,9 13 7 22 12 ZZW 1010,7 10 0,0
19.08.2017 03:00:00 11,8 10,7 10,8 16 9 29 16 ZZW 1010,6 10 0,0
19.08.2017 02:00:00 11,5 10,7 10,4 15 8 22 12 ZZW 1010,4 10 0,0
19.08.2017 01:00:00 11,8 11,1 10,8 13 7 18 10 ZZW 1010,6 10 0,0
19.08.2017 00:00:00 12,7 11,8 12,6 9 5 32 18 WZW 1010,0 10 0,8
18.08.2017 23:00:00 14,9 12,6 13,3 15 8 36 19 ZW 1010,5 10 0,3
18.08.2017 22:00:00 14,3 12,3 12,5 5 3 11 6 Z 1009,9 10 0,0
18.08.2017 21:00:00 14,6 12,5 14,1 9 5 25 14 ZW 1009,6 10 0,0
18.08.2017 20:00:00 17,6 13,4 15,8 16 9 29 16 WZW 1009,4 10 0,0
18.08.2017 19:00:00 18,8 13,6 17,5 18 10 32 18 WZW 1009,4 10 0,0
18.08.2017 18:00:00 19,1 14,0 18,0 21 11 32 18 WZW 1009,4 10 0,0
18.08.2017 17:00:00 19,1 15,9 18,4 21 11 32 18 ZW 1009,1 10 0,0
18.08.2017 16:00:00 18,9 15,8 18,0 24 13 32 18 ZW 1009,3 10 0,0
18.08.2017 15:00:00 18,2 16,2 18,2 22 12 36 19 ZZW 1009,6 10 1,1
18.08.2017 14:00:00 21,2 15,3 21,0 26 14 36 19 ZZW 1009,6 10 0,0
18.08.2017 13:00:00 21,2 16,3 21,3 21 11 32 18 ZZW 1010,0 10 0,0
18.08.2017 12:00:00 20,5 16,4 20,4 21 11 32 18 ZZW 1010,5 10 0,0
18.08.2017 11:00:00 18,3 16,4 18,0 21 11 29 16 ZZW 1011,0 10 0,0
18.08.2017 10:00:00 17,4 16,0 17,2 16 9 29 16 ZZW 1011,2 10 0,0
18.08.2017 09:00:00 16,5 15,5 16,1 16 9 22 12 ZZW 1011,0 10 0,0
18.08.2017 08:00:00 15,4 14,7 14,8 13 7 22 12 ZZW 1011,1 10 0,0
18.08.2017 07:00:00 15,2 14,6 14,6 15 8 25 14 ZZW 1011,2 10 0,0
18.08.2017 06:00:00 15,3 14,5 14,5 13 7 22 12 ZZW 1011,4 10 0,0
18.08.2017 05:00:00 15,4 14,7 14,5 15 8 22 12 ZZW 1011,2 10 0,0
18.08.2017 04:00:00 15,9 15,0 14,9 15 8 22 12 ZZW 1011,5 10 0,0
18.08.2017 03:00:00 16,1 15,8 15,2 13 7 22 12 ZZW 1011,7 7 0,0
18.08.2017 02:00:00 16,4 15,9 15,5 13 7 22 12 ZZW 1012,1 6 0,0
18.08.2017 01:00:00 16,8 16,3 15,9 13 7 22 12 ZZW 1012,4 6 0,0

tt = temperatuur
td = dauwpunt
tt 5cm = temperatuur 5cm
ff = windsnelheid
fx = windstoten
dd = windrichting
ppp = luchtdruk
vv = zicht
rr = neerslag

Weerstations in de omgeving